Weather in Novopetrovskoe

Russia / Moscow Oblast     55°59′29″N   36°29′05″E
temp.,
°C
wind,
m/s
gust,
m/s
humid.,
%
clouds,
%
prec.,
mm/h
press.,
hPa
HPBL,
m
21 january, fri
fri2100:00−3s51395100 0.3 999716
03:00−3s51193100 0.6 998594
06:00−4s4995100 0.1 997503
09:00−5sse4995100 0.2 997392
12:00−4se4996100 0.4 996478
15:00−4sse3794100 0.9 996652
18:00−9se289759 0.1 997133
21:00−9se399897 0.1 997220
22 january, sat
sat2200:00−8ese3996100 0.1 998295
03:00−8ese3995100 0.4 999293
06:00−8ese389599 0.4 1000295
09:00−8e3896100 0.6 1003249
12:00−5sse369398 0.4 1005503
15:00−6se269484 0.5 1008488
18:00−9ne1297100 0.3 101031
21:00−7ese379694 0.6 1013224
23 january, sun
sun2300:00−9e269781 0.2 1016143
03:00−14e2310099 0.2 101943
06:00−17ene12100100 0.0 102225
09:00−19ene11100100 0.1 10269
12:00−11ene129697 0.0 1028119
15:00−9ne129673 0.1 1030112
18:00−16nne1110090 0.0 10339
21:00−18nne11100100 0.0 103510
24 january, mon
mon2400:00−19nne21100100 0.0 103612
03:00−20nne11100100 0.0 103710
06:00−20nne22100100 0.0 103717
09:00−20ne23100100 0.1 103831
12:00−11e259685 0.0 1036140
15:00−8ene139517 0.0 1034156
18:00−15nne1110088 0.0 103411
21:00−15ne1110098 0.1 10339
25 january, tue
tue2500:00−18ese11100100 0.0 10319
03:00−19sse11100100 0.1 10309
06:00−20se11100100 0.0 10289
09:00−20sse21100100 0.1 102723
12:00−12s239696 0.0 1025150
15:00−10sse2495100 0.0 1023226
18:00−15sse2310098 0.0 102336
21:00−14sse139996 0.1 102369